Showing default

METEOR M2, 40069

Orbit data source: Space-Track

METEOR M2, 40069 is a Commonwealth of Independent States-origin payload satellite in SSO that was launched on Tue, 08 Jul 2014 UTC via a SOYUZ-2-1B launch vehicle from the Tyuratam Missile And Space Complex (TTMTR). Payload-class satellites include a variety of spacecraft equipped with specific instruments for various scientific and technological missions. These include communications satellites like Starlink; space stations such as the ISS; scientific satellites like the Hubble; Earth observation satellites from companies like Planet Labs, Umbra, and HawkEye 360; GPS; miniature CubeSats for education and research; and military/defense satellites.

Loading next visibility...
Identifier
40069, 2014-037A
Orbit
SSO
Last TLE update
7 hours ago
Origin
Manufacturer
VNIIEM
Mission
Partially operational Civil Weather
Bus & Motor
RESURS-O, Unknown motor
Mass
2,879 kg wet, ~2,600 kg dry
Launch date (UTC)
2014-07-08 (11 years ago)
Launch vehicle
SOYUZ-2-1B
Launch site
Tyuratam Missile And Space Complex (TTMTR)
Object type
Payload
Rocket body
Debris
Shape & HBR
Cyl + 2 Pan, 14 m
Radar Cross Section
26.744 m², Large (>1 m²)

Expand to show TLE details & history

TLE from 7 hours ago
0 METEOR M2
1 40069U 14037A   25183.85173743  .00000092  00000-0  61282-4 0  9995
2 40069  98.4686 167.8535 0005342 344.2751  15.8260 14.21305335569691
Epoch: 2025-07-02T20:26Z
TLE epoch observation values (Epoch: 2025-07-02T20:26:30.113Z)
Latitude
-0.00007°
Longitude
-59.89886°
Altitude
820.165 km
Speed
7.445 km/s
True Right ascension
11h 11m 24s
True Declination
0° 00' 00"
Sunlit
Object was in daylight at epoch
Visualization orbit readout
Latitude
77.79364°
Longitude
163.59686°
Altitude
835.715 km
Speed
7.441 km/s
Apparent Right ascension
03h 06m 13s
Apparent Declination
24° 56' 58"
Sunlit
Object is in daylight
Visualization observer readout
Local Sidereal Time
15:25:01
Azimuth
4.7° NNE
Elevation
-24.987°
Doppler factor
1
Orbital elements
Apogee altitude
821.931 km
Perigee altitude
814.243 km
Semi-major axis
7,196.224 km
Eccentricity
0.00053
Inclination
98.4686°
RAAN
167.8535°
Arg. of periapsis
344.2751°
True anomaly
Unknown
Mean anomaly
15.826°
Eccentric anomaly
Unknown
Mean motion
3.55538 °/min
Orbital period
101.25 mins
BSTAR
0.000061282
Loading maneuver chart data...
Loading SW <> Apogee altitude chart data...
Loading historical data...
Loading historical data...
Loading historical data...
Loading historical data...
Loading historical data...
Loading historical data...
Loading historical data...

METEOR M2 Visibility forecast

Observer location: undefined°, undefined°

Span
Click to sort rows by Start time (UTC) header in descending order
Start Az.
Max El. time (UTC)
Max El. Az.
Max El.
End time (UTC)
End Az.
5 mins2025-07-03 10:34:47.926Z59.854° ENE2025-07-03 10:37:47.926Z98.132° ESE16.391°2025-07-03 10:39:47.926Z122.847° SE
9 mins2025-07-03 12:13:47.926Z1.281° NNE2025-07-03 12:17:47.926Z287.488° WNW40.116°2025-07-03 12:22:47.926Z210.717° SW
7 mins2025-07-03 21:56:47.926Z107.869° ESE2025-07-03 21:59:47.926Z60.129° ENE24.155°2025-07-03 22:03:47.926Z11.055° NNE
8 mins2025-07-03 23:35:47.926Z202.294° SSW2025-07-03 23:39:47.926Z272.908° WNW31.243°2025-07-03 23:43:47.926Z327.505° NNW
|